Location: ???????
(54.6339°N, 39.4245°E)
Time: 07:05:50
(UTC+00:00)

SWARM A - Pass Details

Date: 19 May 2025
Orbit: 436 x 441 km, 87.3° (Epoch: 15 June)

Event Time Altitude Azimuth Distance (km) Brightness Sun altitude
Exits shadow 19:15:40 11° 189° (S) 1,499 6.5 -10.9°
Maximum altitude 19:18:54 72° 274° (W) 473 4.5 -11.1°
Drops below altitude 10° 19:22:19 10° 360° (N) 1,577 8.1 -11.4°
Sets 19:24:23 0° 2° (N) 2,452 9.2 -11.5°
